Simultaneous Nadir Overpasses (SNOs) Predictions

Prediction of SNOs between AQUA and METOP-B Satellite Orbit:

Table of predicted SNOs for the next 14.0 days since TLE Epoch: 12/21/2012
Index Date (AQUA) Time (AQUA) Lat,Lon (AQUA) SZA (AQUA ) Date (METOP-B) Time (METOP-B) Lat,Lon (METOP-B) SZA (METOP-B ) Distance(km) Time Diff (sec)
1 12/22/2012 08:49:20 -73.72,-137.97 82.88 12/22/2012 08:48:34 -73.71,-137.98 82.88 1.24 46
2 12/22/2012 09:38:49 73.80, 29.50 97.21 12/22/2012 09:39:12 73.77, 29.49 97.18 2.81 23
3 12/25/2012 04:23:37 -73.71, -71.52 82.93 12/25/2012 04:23:00 -73.74, -71.52 82.89 2.96 37
4 12/25/2012 05:13:06 73.79, 95.94 97.16 12/25/2012 05:13:38 73.80, 95.96 97.17 1.36 32
5 12/27/2012 23:57:56 -73.74, -5.16 83.00 12/27/2012 23:57:30 -73.72, -5.20 83.02 3.33 26
6 12/28/2012 00:47:24 73.77, 162.41 97.04 12/28/2012 00:48:08 73.78, 162.30 97.04 3.61 44
7 12/30/2012 18:42:38 73.17,-105.18 96.24 12/30/2012 18:41:31 73.11,-107.51 96.26 75.59 67
8 12/30/2012 19:32:15 -73.76, 61.23 83.15 12/30/2012 19:32:01 -73.73, 61.22 83.17 2.65 14
9 12/30/2012 20:21:43 73.79,-131.21 96.89 12/30/2012 20:22:39 73.80,-131.27 96.90 2.46 56
10 01/02/2013 14:17:05 73.65, -39.74 96.52 01/02/2013 14:15:53 73.63, -39.97 96.52 7.52 72
11 01/02/2013 15:06:33 -73.76, 127.66 83.38 01/02/2013 15:06:33 -73.75, 127.63 83.38 1.52 0




NCC Satellite Simultaneous Nadir Overpasses (SNOs) Prediction Service
